This is the latest recevied weather packets stored in our database for station/object KN6KDD. If no packets are shown the sender has not sent any weather packets the latest 10 day(s).
| Time | Temp. | Humidity | Pressure | Rain* | Wind** | Luminosity | Snow |
|---|---|---|---|---|---|---|---|
| 1777528951 | 11.11° C | 84% | 1356 hPa | 0 mm | - | 0 W/m² | - |
| 1777528648 | 11.11° C | 83% | 1356.1 hPa | 0 mm | - | 0 W/m² | - |
| 1777528346 | 11.11° C | 83% | 1356 hPa | 0 mm | - | 0 W/m² | - |
| 1777528044 | 11.11° C | 83% | 1356.2 hPa | 0 mm | - | 0 W/m² | - |
| 1777527741 | 11.11° C | 82% | 1356.2 hPa | 0 mm | - | 0 W/m² | - |
| 1777527436 | 11.11° C | 83% | 1356.2 hPa | 0 mm | - | 0 W/m² | - |
| 1777527136 | 11.11° C | 83% | 1356.2 hPa | 0 mm | - | 0 W/m² | - |
| 1777526833 | 11.11° C | 83% | 1356.4 hPa | 0 mm | - | 0 W/m² | - |
| 1777526528 | 11.11° C | 82% | 1356.2 hPa | 0 mm | - | 0 W/m² | - |
| 1777526223 | 11.11° C | 82% | 1356.5 hPa | 0 mm | - | 0 W/m² | - |
| 1777525919 | 11.11° C | 82% | 1356.5 hPa | 0 mm | - | 0 W/m² | - |
| 1777525616 | 11.67° C | 80% | 1356.2 hPa | 0 mm | - | 0 W/m² | - |
| 1777525314 | 11.67° C | 80% | 1356.4 hPa | 0 mm | - | 0 W/m² | - |
| 1777525009 | 11.67° C | 82% | 1356.4 hPa | 0 mm | - | 0 W/m² | - |
| 1777524706 | 11.67° C | 80% | 1356.4 hPa | 0 mm | - | 0 W/m² | - |
| 1777524405 | 11.67° C | 82% | 1356.4 hPa | 0 mm | - | 0 W/m² | - |
| 1777524100 | 11.67° C | 80% | 1356.9 hPa | 0 mm | - | 0 W/m² | - |
| 1777523797 | 11.67° C | 79% | 1356.6 hPa | 0 mm | - | 0 W/m² | - |
| 1777523493 | 11.67° C | 82% | 1356.5 hPa | 0 mm | - | 0 W/m² | - |
| 1777523190 | 11.67° C | 81% | 1356.5 hPa | 0 mm | - | 0 W/m² | - |
| 1777522885 | 12.22° C | 82% | 1356.5 hPa | 0 mm | - | 0 W/m² | - |
| 1777522583 | 12.22° C | 81% | 1356.6 hPa | 0 mm | - | 0 W/m² | - |
| 1777522280 | 12.22° C | 81% | 1356.5 hPa | 0 mm | - | 0 W/m² | - |
| 1777521977 | 11.67° C | 83% | 1356.5 hPa | 0 mm | - | 0 W/m² | - |
| 1777521674 | 11.67° C | 84% | 1356.4 hPa | 0 mm | - | 0 W/m² | - |
* Rain latest hour (hover to see other rain measurements)
** Current wind speed in m/s (hover to see current wind gust speed)